QPF
0.00 0.00 0.00 0.01 0.04 0.02 0.00 0.00 0.00 0.00 0.01 0.00 0.00 0.00 0.01 0.02 0.05 0.06 0.02 0.00 0.00 0.00 0.00 0.00 0.01 0.02 0.03 0.02 0.02 0.03 0.02 0.03 0.03 0.03 0.03 0.03 0.04 0.05 0.04 0.03 0.03 0.04 0.03 0.02 0.02 0.02 0.03 0.04 0.03
0.00 0.00 0.01 0.01 0.03 0.01 0.00 0.00 0.00 0.00 0.00 0.00 0.00 0.00 0.00 0.00 0.00 0.00 0.00 0.00 0.00 0.00 0.00 0.00 0.01 0.01 0.02 0.02 0.03 0.03 0.03 0.02 0.03 0.03 0.04 0.04 0.05 0.05 0.04 0.05 0.04 0.03 0.03 0.02 0.02 0.02 0.03 0.05 0.03
0.00 0.00 0.00 0.01 0.02 0.01 0.00 0.00 0.00 0.00 0.00 0.00 0.00 0.00 0.00 0.01 0.00 0.01 0.00 0.00 0.00 0.00 0.00 0.00 0.01 0.01 0.01 0.02 0.03 0.03 0.03 0.03 0.03 0.02 0.02 0.03 0.04 0.04 0.04 0.05 0.05 0.03 0.03 0.02 0.02 0.02 0.02 0.03 0.03
0.00 0.01 0.00 0.00 0.01 0.01 0.00 0.00 0.00 0.00 0.00 0.00 0.00 0.00 0.00 0.01 0.01 0.01 0.00 0.00 0.00 0.00 0.00 0.00 0.01 0.01 0.01 0.02 0.02 0.02 0.02 0.02 0.02 0.02 0.02 0.02 0.03 0.04 0.04 0.03 0.04 0.03 0.03 0.02 0.02 0.03 0.03 0.03 0.02
0.00 0.01 0.01 0.00 0.00 0.00 0.00 0.00 0.00 0.01 0.00 0.00 0.00 0.00 0.01 0.02 0.02 0.01 0.01 0.00 0.00 0.01 0.01 0.00 0.00 0.01 0.02 0.02 0.02 0.02 0.01 0.02 0.02 0.02 0.02 0.03 0.03 0.04 0.04 0.03 0.03 0.03 0.03 0.02 0.02 0.04 0.05 0.04 0.03
0.01 0.02 0.02 0.01 0.00 0.00 0.00 0.00 0.00 0.00 0.00 0.00 0.00 0.00 0.01 0.02 0.02 0.01 0.01 0.01 0.01 0.01 0.00 0.00 0.01 0.01 0.02 0.02 0.02 0.01 0.01 0.01 0.02 0.02 0.02 0.02 0.03 0.05 0.06 0.04 0.03 0.04 0.03 0.02 0.02 0.04 0.04 0.04 0.02
0.01 0.03 0.03 0.01 0.00 0.00 0.00 0.00 0.00 0.00 0.00 0.00 0.00 0.01 0.02 0.03 0.01 0.01 0.02 0.01 0.02 0.00 0.00 0.00 0.00 0.00 0.01 0.02 0.02 0.02 0.02 0.02 0.01 0.02 0.02 0.01 0.02 0.03 0.04 0.04 0.04 0.03 0.03 0.02 0.02 0.02 0.02 0.02 0.02
0.00 0.02 0.03 0.00 0.00 0.00 0.00 0.00 0.00 0.00 0.00 0.00 0.00 0.01 0.01 0.02 0.00 0.00 0.01 0.01 0.01 0.01 0.00 0.00 0.01 0.01 0.01 0.02 0.02 0.03 0.02 0.02 0.02 0.02 0.02 0.02 0.02 0.03 0.03 0.03 0.03 0.02 0.02 0.02 0.02 0.01 0.01 0.01 0.01
0.00 0.02 0.02 0.00 0.00 0.00 0.00 0.00 0.00 0.00 0.00 0.00 0.00 0.00 0.00 0.00 0.00 0.00 0.01 0.07 0.03 0.01 0.01 0.00 0.01 0.01 0.02 0.03 0.02 0.03 0.02 0.02 0.03 0.03 0.03 0.08 0.12 0.07 0.06 0.04 0.02 0.01 0.01 0.01 0.02 0.01 0.01 0.02 0.01
0.00 0.01 0.00 0.00 0.00 0.00 0.00 0.00 0.00 0.01 0.01 0.00 0.00 0.00 0.00 0.00 0.00 0.00 0.01 0.02 0.02 0.01 0.01 0.01 0.01 0.02 0.02 0.03 0.03 0.06 0.05 0.06 0.10 0.07 0.08 0.13 0.14 0.11 0.09 0.04 0.02 0.02 0.01 0.02 0.02 0.03 0.05 0.04 0.02
0.00 0.00 0.00 0.00 0.00 0.00 0.00 0.00 0.00 0.01 0.01 0.01 0.00 0.00 0.00 0.00 0.01 0.01 0.01 0.01 0.00 0.00 0.01 0.01 0.01 0.02 0.03 0.04 0.03 0.05 0.07 0.09 0.10 0.07 0.07 0.09 0.07 0.06 0.07 0.06 0.04 0.04 0.04 0.06 0.05 0.05 0.07 0.05 0.02
0.00 0.00 0.00 0.00 0.00 0.00 0.00 0.00 0.00 0.00 0.00 0.00 0.00 0.00 0.00 0.00 0.01 0.01 0.01 0.00 0.01 0.01 0.00 0.01 0.01 0.02 0.02 0.03 0.05 0.05 0.05 0.06 0.07 0.07 0.06 0.05 0.06 0.08 0.08 0.09 0.09 0.07 0.08 0.10 0.07 0.07 0.07 0.06 0.05
0.00 0.00 0.00 0.00 0.00 0.00 0.00 0.01 0.00 0.00 0.00 0.00 0.00 0.00 0.00 0.00 0.00 0.01 0.01 0.00 0.02 0.03 0.02 0.01 0.02 0.02 0.03 0.04 0.07 0.08 0.06 0.05 0.06 0.05 0.06 0.04 0.04 0.06 0.06 0.06 0.08 0.05 0.03 0.04 0.06 0.05 0.06 0.07 0.06
0.00 0.00 0.00 0.00 0.00 0.00 0.01 0.03 0.01 0.00 0.00 0.00 0.00 0.00 0.00 0.00 0.00 0.00 0.01 0.01 0.02 0.02 0.02 0.02 0.01 0.02 0.03 0.04 0.06 0.10 0.06 0.05 0.04 0.03 0.04 0.03 0.04 0.05 0.06 0.05 0.05 0.05 0.04 0.04 0.04 0.04 0.05 0.05 0.04
0.00 0.00 0.00 0.00 0.00 0.00 0.02 0.06 0.02 0.01 0.00 0.00 0.00 0.00 0.00 0.00 0.00 0.00 0.00 0.01 0.01 0.02 0.03 0.03 0.02 0.02 0.03 0.04 0.04 0.05 0.03 0.02 0.03 0.04 0.04 0.03 0.04 0.05 0.05 0.06 0.05 0.05 0.05 0.04 0.04 0.04 0.04 0.04 0.04
0.00 0.00 0.01 0.00 0.00 0.00 0.02 0.11 0.06 0.01 0.00 0.00 0.00 0.00 0.00 0.00 0.00 0.00 0.00 0.01 0.01 0.01 0.02 0.02 0.02 0.03 0.03 0.05 0.05 0.07 0.05 0.05 0.07 0.05 0.05 0.04 0.04 0.03 0.04 0.05 0.06 0.07 0.07 0.06 0.05 0.04 0.04 0.04 0.06
0.00 0.00 0.01 0.01 0.00 0.00 0.01 0.05 0.03 0.01 0.01 0.00 0.00 0.00 0.00 0.00 0.00 0.00 0.00 0.00 0.01 0.02 0.02 0.02 0.03 0.03 0.05 0.05 0.06 0.07 0.06 0.06 0.07 0.10 0.11 0.06 0.05 0.02 0.03 0.05 0.07 0.08 0.08 0.06 0.05 0.05 0.06 0.06 0.06
0.00 0.00 0.00 0.00 0.00 0.00 0.00 0.01 0.01 0.01 0.01 0.02 0.02 0.00 0.00 0.00 0.01 0.01 0.00 0.00 0.00 0.01 0.02 0.03 0.04 0.03 0.04 0.05 0.06 0.08 0.06 0.06 0.06 0.08 0.07 0.05 0.06 0.03 0.04 0.05 0.05 0.04 0.06 0.07 0.07 0.07 0.05 0.05 0.04
0.00 0.00 0.00 0.00 0.00 0.00 0.00 0.01 0.01 0.01 0.01 0.01 0.01 0.00 0.00 0.00 0.00 0.00 0.00 0.00 0.00 0.00 0.01 0.03 0.04 0.05 0.04 0.05 0.07 0.08 0.08 0.08 0.07 0.06 0.04 0.04 0.05 0.05 0.05 0.05 0.08 0.05 0.06 0.07 0.05 0.06 0.05 0.04 0.04
0.00 0.00 0.00 0.00 0.00 0.00 0.00 0.00 0.01 0.01 0.01 0.00 0.00 0.00 0.00 0.00 0.00 0.00 0.00 0.00 0.00 0.01 0.01 0.02 0.03 0.04 0.03 0.06 0.09 0.10 0.11 0.08 0.07 0.07 0.09 0.07 0.07 0.07 0.05 0.07 0.08 0.09 0.10 0.09 0.08 0.09 0.08 0.07 0.06
0.00 0.00 0.00 0.00 0.00 0.00 0.00 0.01 0.02 0.02 0.01 0.01 0.01 0.00 0.00 0.00 0.00 0.00 0.00 0.00 0.00 0.01 0.01 0.02 0.03 0.04 0.05 0.08 0.08 0.10 0.11 0.09 0.10 0.08 0.09 0.08 0.07 0.07 0.07 0.09 0.09 0.11 0.08 0.11 0.11 0.11 0.10 0.11 0.09
0.00 0.00 0.00 0.00 0.00 0.00 0.00 0.01 0.03 0.02 0.02 0.00 0.01 0.01 0.00 0.02 0.01 0.00 0.00 0.00 0.01 0.01 0.01 0.02 0.04 0.04 0.06 0.08 0.09 0.11 0.13 0.13 0.14 0.12 0.10 0.11 0.09 0.08 0.08 0.10 0.12 0.12 0.10 0.12 0.08 0.12 0.14 0.15 0.11
0.00 0.00 0.00 0.00 0.00 0.00 0.00 0.01 0.02 0.02 0.02 0.01 0.00 0.00 0.01 0.05 0.02 0.00 0.00 0.01 0.01 0.01 0.02 0.02 0.04 0.06 0.07 0.09 0.09 0.12 0.13 0.14 0.13 0.13 0.13 0.16 0.11 0.09 0.08 0.11 0.15 0.13 0.10 0.12 0.11 0.16 0.13 0.13 0.11
0.00 0.00 0.00 0.00 0.00 0.00 0.00 0.00 0.01 0.01 0.02 0.01 0.00 0.00 0.00 0.05 0.03 0.00 0.00 0.01 0.01 0.01 0.02 0.03 0.06 0.07 0.09 0.09 0.09 0.10 0.12 0.15 0.13 0.13 0.14 0.12 0.11 0.09 0.09 0.11 0.15 0.14 0.14 0.14 0.13 0.12 0.11 0.13 0.14
0.00 0.00 0.00 0.00 0.00 0.00 0.00 0.00 0.01 0.01 0.00 0.01 0.00 0.00 0.00 0.00 0.00 0.00 0.00 0.01 0.01 0.01 0.02 0.06 0.07 0.07 0.08 0.07 0.07 0.08 0.10 0.12 0.12 0.12 0.12 0.10 0.09 0.08 0.08 0.10 0.14 0.14 0.13 0.13 0.14 0.13 0.13 0.14 0.14
0.00 0.00 0.00 0.00 0.00 0.00 0.00 0.00 0.00 0.00 0.00 0.00 0.00 0.00 0.00 0.01 0.01 0.00 0.00 0.01 0.01 0.01 0.02 0.03 0.06 0.06 0.06 0.06 0.09 0.10 0.10 0.11 0.11 0.12 0.10 0.10 0.08 0.07 0.07 0.10 0.11 0.12 0.12 0.15 0.19 0.14 0.13 0.15 0.15
0.00 0.00 0.00 0.00 0.00 0.01 0.01 0.00 0.01 0.00 0.00 0.00 0.00 0.00 0.00 0.00 0.01 0.00 0.00 0.01 0.01 0.01 0.01 0.01 0.03 0.06 0.06 0.07 0.08 0.09 0.07 0.09 0.11 0.10 0.09 0.11 0.11 0.09 0.10 0.12 0.16 0.16 0.14 0.16 0.19 0.16 0.15 0.16 0.13
0.00 0.00 0.00 0.00 0.00 0.00 0.00 0.01 0.01 0.00 0.00 0.00 0.00 0.00 0.00 0.00 0.01 0.00 0.00 0.01 0.02 0.01 0.01 0.01 0.03 0.05 0.06 0.07 0.06 0.06 0.08 0.09 0.09 0.09 0.09 0.10 0.10 0.11 0.12 0.12 0.14 0.13 0.13 0.15 0.18 0.17 0.16 0.15 0.14
0.00 0.00 0.00 0.00 0.00 0.00 0.00 0.01 0.01 0.00 0.00 0.00 0.00 0.00 0.00 0.01 0.03 0.01 0.00 0.00 0.00 0.01 0.01 0.02 0.03 0.03 0.03 0.04 0.05 0.05 0.07 0.07 0.07 0.08 0.08 0.08 0.07 0.08 0.09 0.11 0.14 0.13 0.13 0.14 0.16 0.15 0.17 0.17 0.17
0.00 0.00 0.00 0.00 0.00 0.00 0.00 0.01 0.01 0.01 0.00 0.00 0.00 0.00 0.00 0.01 0.02 0.01 0.00 0.00 0.00 0.01 0.01 0.03 0.02 0.02 0.02 0.03 0.04 0.04 0.06 0.06 0.06 0.06 0.05 0.06 0.06 0.06 0.07 0.11 0.12 0.13 0.14 0.16 0.17 0.17 0.16 0.17 0.17
MSLP
1007.40 1008.12 1008.91 1009.63 1010.15 1010.40 1010.38 1010.15 1009.81 1009.50 1009.32 1009.32 1009.51 1009.82 1010.18 1010.50 1010.73 1010.84 1010.88 1010.92 1011.04 1011.30 1011.72 1012.28 1012.90 1013.49 1013.96 1014.23 1014.31 1014.21 1014.01 1013.78 1013.63 1013.59 1013.68 1013.88 1014.14 1014.40 1014.62 1014.78 1014.88 1014.93 1014.97 1015.03 1015.11 1015.23 1015.35 1015.47 1015.56
1007.60 1008.41 1009.23 1009.91 1010.35 1010.48 1010.34 1010.01 1009.60 1009.25 1009.05 1009.05 1009.24 1009.55 1009.89 1010.18 1010.37 1010.47 1010.51 1010.58 1010.76 1011.11 1011.63 1012.29 1013.01 1013.67 1014.18 1014.48 1014.57 1014.47 1014.28 1014.07 1013.93 1013.91 1014.02 1014.23 1014.49 1014.74 1014.94 1015.08 1015.15 1015.20 1015.25 1015.33 1015.44 1015.59 1015.73 1015.85 1015.93
1007.94 1008.80 1009.61 1010.21 1010.53 1010.53 1010.26 1009.82 1009.34 1008.96 1008.76 1008.77 1008.96 1009.26 1009.58 1009.84 1009.99 1010.06 1010.09 1010.19 1010.42 1010.84 1011.45 1012.20 1013.00 1013.73 1014.30 1014.65 1014.78 1014.72 1014.57 1014.40 1014.30 1014.32 1014.44 1014.65 1014.89 1015.11 1015.27 1015.37 1015.43 1015.47 1015.54 1015.64 1015.79 1015.96 1016.13 1016.25 1016.31
1008.35 1009.23 1009.99 1010.49 1010.68 1010.55 1010.16 1009.63 1009.10 1008.71 1008.52 1008.55 1008.75 1009.04 1009.34 1009.55 1009.66 1009.70 1009.72 1009.82 1010.09 1010.57 1011.25 1012.07 1012.94 1013.73 1014.36 1014.76 1014.94 1014.95 1014.85 1014.75 1014.70 1014.75 1014.89 1015.09 1015.30 1015.48 1015.61 1015.68 1015.72 1015.77 1015.85 1015.99 1016.17 1016.37 1016.54 1016.66 1016.69
1008.76 1009.62 1010.29 1010.69 1010.75 1010.50 1010.02 1009.45 1008.92 1008.55 1008.40 1008.46 1008.68 1008.97 1009.24 1009.42 1009.48 1009.47 1009.47 1009.57 1009.86 1010.37 1011.09 1011.96 1012.87 1013.70 1014.37 1014.82 1015.05 1015.12 1015.09 1015.05 1015.06 1015.15 1015.31 1015.51 1015.70 1015.85 1015.94 1015.99 1016.02 1016.08 1016.19 1016.36 1016.57 1016.79 1016.96 1017.05 1017.05
1009.07 1009.86 1010.44 1010.72 1010.67 1010.35 1009.84 1009.28 1008.79 1008.49 1008.41 1008.54 1008.80 1009.09 1009.34 1009.47 1009.49 1009.44 1009.41 1009.50 1009.79 1010.31 1011.04 1011.92 1012.83 1013.66 1014.34 1014.81 1015.08 1015.20 1015.23 1015.26 1015.33 1015.46 1015.65 1015.85 1016.03 1016.16 1016.24 1016.27 1016.31 1016.39 1016.53 1016.72 1016.95 1017.17 1017.33 1017.39 1017.35
1009.20 1009.89 1010.35 1010.53 1010.41 1010.06 1009.57 1009.08 1008.69 1008.51 1008.54 1008.75 1009.06 1009.38 1009.62 1009.73 1009.71 1009.62 1009.56 1009.63 1009.90 1010.39 1011.10 1011.94 1012.81 1013.61 1014.26 1014.72 1015.00 1015.15 1015.24 1015.32 1015.45 1015.63 1015.85 1016.07 1016.26 1016.39 1016.46 1016.51 1016.56 1016.66 1016.81 1017.03 1017.26 1017.47 1017.60 1017.63 1017.54
1009.13 1009.69 1010.04 1010.12 1009.96 1009.62 1009.19 1008.81 1008.57 1008.54 1008.70 1009.03 1009.41 1009.77 1010.01 1010.11 1010.07 1009.96 1009.87 1009.91 1010.14 1010.59 1011.24 1012.01 1012.81 1013.54 1014.13 1014.55 1014.82 1014.98 1015.10 1015.23 1015.41 1015.64 1015.90 1016.16 1016.36 1016.51 1016.60 1016.66 1016.73 1016.85 1017.02 1017.24 1017.46 1017.65 1017.75 1017.74 1017.62
1008.90 1009.31 1009.53 1009.53 1009.34 1009.04 1008.71 1008.47 1008.39 1008.52 1008.83 1009.27 1009.74 1010.14 1010.41 1010.52 1010.48 1010.36 1010.26 1010.27 1010.46 1010.86 1011.42 1012.10 1012.80 1013.43 1013.94 1014.30 1014.54 1014.70 1014.85 1015.02 1015.25 1015.53 1015.83 1016.12 1016.36 1016.54 1016.65 1016.73 1016.82 1016.95 1017.12 1017.33 1017.54 1017.70 1017.77 1017.73 1017.59
1008.58 1008.83 1008.93 1008.85 1008.65 1008.38 1008.16 1008.05 1008.12 1008.40 1008.85 1009.40 1009.96 1010.42 1010.73 1010.87 1010.85 1010.74 1010.65 1010.64 1010.80 1011.12 1011.60 1012.17 1012.76 1013.28 1013.70 1014.00 1014.21 1014.36 1014.52 1014.73 1015.00 1015.33 1015.67 1016.00 1016.28 1016.48 1016.63 1016.73 1016.83 1016.96 1017.12 1017.32 1017.50 1017.64 1017.69 1017.64 1017.50
1008.27 1008.38 1008.35 1008.20 1007.98 1007.75 1007.60 1007.60 1007.79 1008.19 1008.75 1009.38 1010.01 1010.53 1010.90 1011.08 1011.11 1011.04 1010.97 1010.97 1011.09 1011.36 1011.75 1012.22 1012.70 1013.13 1013.46 1013.70 1013.88 1014.03 1014.20 1014.43 1014.74 1015.10 1015.48 1015.84 1016.15 1016.38 1016.54 1016.66 1016.77 1016.89 1017.05 1017.22 1017.39 1017.52 1017.57 1017.52 1017.39
1008.08 1008.06 1007.93 1007.71 1007.45 1007.23 1007.12 1007.18 1007.45 1007.91 1008.53 1009.22 1009.89 1010.47 1010.89 1011.14 1011.23 1011.23 1011.20 1011.21 1011.32 1011.55 1011.88 1012.26 1012.65 1013.00 1013.27 1013.47 1013.62 1013.77 1013.95 1014.20 1014.52 1014.90 1015.30 1015.67 1016.00 1016.25 1016.43 1016.56 1016.67 1016.79 1016.94 1017.10 1017.26 1017.39 1017.45 1017.43 1017.35
1008.08 1007.96 1007.74 1007.45 1007.16 1006.92 1006.81 1006.88 1007.16 1007.63 1008.26 1008.96 1009.66 1010.28 1010.76 1011.08 1011.25 1011.32 1011.35 1011.40 1011.51 1011.71 1011.99 1012.31 1012.64 1012.93 1013.16 1013.34 1013.49 1013.63 1013.82 1014.07 1014.39 1014.76 1015.15 1015.53 1015.85 1016.11 1016.30 1016.44 1016.56 1016.68 1016.82 1016.98 1017.15 1017.29 1017.38 1017.41 1017.38
1008.31 1008.12 1007.83 1007.49 1007.15 1006.88 1006.73 1006.76 1007.00 1007.42 1008.01 1008.68 1009.37 1010.01 1010.54 1010.94 1011.20 1011.35 1011.45 1011.54 1011.68 1011.87 1012.11 1012.40 1012.68 1012.95 1013.17 1013.34 1013.50 1013.65 1013.83 1014.07 1014.36 1014.70 1015.06 1015.41 1015.71 1015.97 1016.16 1016.31 1016.44 1016.58 1016.73 1016.90 1017.08 1017.25 1017.39 1017.47 1017.51
1008.70 1008.47 1008.15 1007.78 1007.40 1007.09 1006.89 1006.85 1007.00 1007.34 1007.84 1008.46 1009.12 1009.76 1010.33 1010.79 1011.13 1011.37 1011.53 1011.68 1011.83 1012.02 1012.25 1012.51 1012.78 1013.04 1013.27 1013.46 1013.63 1013.79 1013.97 1014.17 1014.42 1014.70 1015.00 1015.30 1015.58 1015.82 1016.02 1016.18 1016.34 1016.50 1016.67 1016.87 1017.07 1017.27 1017.45 1017.60 1017.70
1009.18 1008.95 1008.62 1008.25 1007.86 1007.51 1007.26 1007.13 1007.18 1007.40 1007.79 1008.32 1008.92 1009.55 1010.15 1010.66 1011.07 1011.38 1011.61 1011.80 1011.97 1012.16 1012.38 1012.63 1012.90 1013.18 1013.43 1013.65 1013.84 1014.01 1014.17 1014.34 1014.53 1014.74 1014.97 1015.21 1015.44 1015.66 1015.87 1016.06 1016.25 1016.44 1016.65 1016.87 1017.10 1017.34 1017.56 1017.74 1017.89
1009.65 1009.44 1009.15 1008.80 1008.43 1008.08 1007.77 1007.57 1007.50 1007.59 1007.86 1008.27 1008.80 1009.40 1009.99 1010.55 1011.02 1011.39 1011.67 1011.89 1012.08 1012.26 1012.48 1012.72 1013.00 1013.29 1013.58 1013.84 1014.07 1014.25 1014.40 1014.53 1014.66 1014.79 1014.94 1015.12 1015.31 1015.51 1015.73 1015.95 1016.17 1016.41 1016.65 1016.90 1017.16 1017.41 1017.65 1017.87 1018.05
1010.02 1009.86 1009.64 1009.36 1009.05 1008.71 1008.38 1008.10 1007.92 1007.87 1007.99 1008.28 1008.72 1009.25 1009.84 1010.41 1010.92 1011.35 1011.67 1011.92 1012.11 1012.29 1012.49 1012.74 1013.02 1013.34 1013.67 1013.98 1014.24 1014.45 1014.60 1014.70 1014.77 1014.84 1014.92 1015.03 1015.18 1015.37 1015.60 1015.85 1016.12 1016.39 1016.67 1016.94 1017.21 1017.47 1017.72 1017.94 1018.14
1010.24 1010.16 1010.05 1009.88 1009.65 1009.36 1009.02 1008.68 1008.38 1008.20 1008.16 1008.30 1008.62 1009.08 1009.63 1010.21 1010.75 1011.21 1011.57 1011.84 1012.04 1012.22 1012.41 1012.65 1012.95 1013.29 1013.66 1014.02 1014.33 1014.58 1014.74 1014.83 1014.87 1014.88 1014.91 1014.97 1015.09 1015.26 1015.50 1015.78 1016.08 1016.38 1016.69 1016.98 1017.25 1017.50 1017.74 1017.96 1018.15
1010.33 1010.36 1010.38 1010.35 1010.24 1010.01 1009.68 1009.28 1008.87 1008.52 1008.31 1008.28 1008.46 1008.82 1009.32 1009.89 1010.45 1010.95 1011.35 1011.65 1011.86 1012.04 1012.23 1012.47 1012.77 1013.14 1013.54 1013.95 1014.32 1014.61 1014.81 1014.91 1014.93 1014.92 1014.91 1014.93 1015.02 1015.18 1015.42 1015.71 1016.04 1016.37 1016.69 1016.98 1017.25 1017.49 1017.71 1017.92 1018.10
1010.32 1010.49 1010.67 1010.81 1010.83 1010.68 1010.36 1009.90 1009.36 1008.84 1008.43 1008.22 1008.23 1008.47 1008.91 1009.45 1010.03 1010.57 1011.02 1011.36 1011.60 1011.79 1011.98 1012.21 1012.52 1012.90 1013.34 1013.79 1014.22 1014.56 1014.80 1014.93 1014.97 1014.95 1014.91 1014.91 1014.98 1015.12 1015.35 1015.64 1015.97 1016.31 1016.63 1016.92 1017.18 1017.41 1017.62 1017.82 1018.01
1010.29 1010.62 1010.99 1011.31 1011.46 1011.40 1011.08 1010.54 1009.86 1009.15 1008.53 1008.11 1007.94 1008.05 1008.40 1008.92 1009.52 1010.11 1010.61 1011.01 1011.30 1011.52 1011.72 1011.95 1012.26 1012.64 1013.10 1013.58 1014.04 1014.44 1014.73 1014.89 1014.95 1014.94 1014.90 1014.88 1014.92 1015.04 1015.24 1015.51 1015.82 1016.15 1016.46 1016.75 1017.01 1017.24 1017.46 1017.67 1017.88
1010.31 1010.82 1011.38 1011.87 1012.16 1012.16 1011.84 1011.21 1010.38 1009.47 1008.63 1007.99 1007.64 1007.61 1007.87 1008.36 1008.98 1009.63 1010.21 1010.68 1011.03 1011.29 1011.50 1011.74 1012.03 1012.41 1012.86 1013.35 1013.83 1014.26 1014.59 1014.80 1014.88 1014.88 1014.84 1014.80 1014.80 1014.87 1015.03 1015.26 1015.53 1015.84 1016.14 1016.43 1016.70 1016.95 1017.19 1017.45 1017.70
1010.40 1011.09 1011.84 1012.49 1012.90 1012.95 1012.61 1011.90 1010.92 1009.81 1008.76 1007.91 1007.38 1007.20 1007.38 1007.85 1008.49 1009.19 1009.85 1010.41 1010.83 1011.14 1011.38 1011.61 1011.89 1012.23 1012.65 1013.13 1013.61 1014.04 1014.39 1014.62 1014.73 1014.74 1014.69 1014.62 1014.58 1014.59 1014.68 1014.85 1015.08 1015.35 1015.63 1015.92 1016.21 1016.50 1016.80 1017.12 1017.45
1010.55 1011.42 1012.33 1013.11 1013.60 1013.69 1013.33 1012.54 1011.43 1010.16 1008.92 1007.89 1007.19 1006.90 1007.00 1007.43 1008.10 1008.86 1009.60 1010.24 1010.74 1011.10 1011.37 1011.59 1011.84 1012.13 1012.50 1012.93 1013.37 1013.79 1014.13 1014.36 1014.48 1014.49 1014.42 1014.32 1014.23 1014.18 1014.20 1014.29 1014.46 1014.68 1014.94 1015.24 1015.56 1015.90 1016.27 1016.67 1017.09
1010.72 1011.72 1012.75 1013.63 1014.18 1014.28 1013.90 1013.05 1011.85 1010.46 1009.10 1007.93 1007.11 1006.72 1006.75 1007.16 1007.84 1008.64 1009.45 1010.17 1010.74 1011.16 1011.45 1011.67 1011.87 1012.11 1012.41 1012.77 1013.15 1013.52 1013.83 1014.05 1014.15 1014.15 1014.06 1013.92 1013.78 1013.66 1013.61 1013.62 1013.72 1013.89 1014.13 1014.43 1014.78 1015.18 1015.62 1016.10 1016.61
1010.84 1011.93 1013.02 1013.93 1014.49 1014.60 1014.21 1013.34 1012.10 1010.66 1009.24 1008.01 1007.12 1006.66 1006.65 1007.03 1007.71 1008.54 1009.40 1010.17 1010.80 1011.26 1011.58 1011.79 1011.96 1012.15 1012.37 1012.65 1012.95 1013.25 1013.52 1013.70 1013.78 1013.76 1013.66 1013.49 1013.30 1013.12 1013.00 1012.94 1012.97 1013.10 1013.30 1013.60 1013.97 1014.41 1014.91 1015.46 1016.04
1010.87 1011.96 1013.03 1013.91 1014.46 1014.56 1014.16 1013.31 1012.11 1010.70 1009.30 1008.08 1007.18 1006.70 1006.66 1007.02 1007.68 1008.51 1009.38 1010.19 1010.86 1011.36 1011.70 1011.92 1012.08 1012.22 1012.38 1012.58 1012.81 1013.04 1013.25 1013.39 1013.45 1013.41 1013.29 1013.11 1012.89 1012.67 1012.49 1012.38 1012.35 1012.42 1012.60 1012.87 1013.24 1013.70 1014.23 1014.82 1015.44
1010.78 1011.78 1012.75 1013.54 1014.01 1014.09 1013.72 1012.93 1011.83 1010.53 1009.23 1008.10 1007.26 1006.80 1006.75 1007.08 1007.70 1008.50 1009.36 1010.17 1010.86 1011.40 1011.78 1012.03 1012.19 1012.31 1012.43 1012.58 1012.74 1012.92 1013.07 1013.18 1013.22 1013.18 1013.06 1012.88 1012.66 1012.43 1012.22 1012.07 1012.00 1012.02 1012.15 1012.39 1012.74 1013.18 1013.70 1014.29 1014.91
1010.58 1011.41 1012.20 1012.83 1013.20 1013.24 1012.91 1012.23 1011.27 1010.16 1009.04 1008.05 1007.31 1006.91 1006.86 1007.15 1007.72 1008.46 1009.28 1010.08 1010.78 1011.35 1011.78 1012.07 1012.27 1012.42 1012.54 1012.66 1012.79 1012.92 1013.05 1013.13 1013.16 1013.13 1013.03 1012.88 1012.68 1012.46 1012.25 1012.09 1011.99 1011.97 1012.05 1012.25 1012.55 1012.95 1013.43 1013.98 1014.56
Thickness
5867 5872 5870 5858 5830 5816 5810 5820 5828 5826 5826 5835 5835 5827 5812 5805 5794 5779 5806 5814 5808 5799 5791 5786 5784 5782 5780 5778 5777 5775 5774 5772 5771 5770 5769 5768 5767 5766 5764 5763 5762 5761 5760 5759 5758 5757 5756 5756 5755
5874 5878 5868 5847 5816 5802 5805 5824 5824 5827 5834 5839 5833 5825 5812 5806 5812 5808 5810 5812 5808 5800 5793 5787 5783 5780 5779 5777 5775 5774 5772 5770 5769 5768 5767 5766 5765 5764 5763 5761 5760 5759 5758 5757 5756 5755 5754 5754 5753
5876 5878 5856 5837 5821 5810 5811 5828 5830 5838 5845 5838 5826 5822 5811 5804 5811 5810 5812 5813 5808 5799 5790 5784 5781 5779 5777 5776 5774 5772 5770 5769 5768 5766 5765 5764 5763 5762 5761 5759 5758 5757 5756 5755 5754 5753 5752 5752 5751
5877 5870 5856 5838 5824 5830 5833 5837 5840 5837 5840 5839 5827 5811 5811 5819 5817 5815 5817 5813 5805 5797 5789 5783 5780 5778 5776 5774 5772 5771 5769 5767 5766 5765 5763 5762 5761 5760 5759 5758 5756 5755 5754 5753 5752 5751 5751 5750 5749
5878 5855 5831 5826 5833 5842 5849 5850 5847 5835 5832 5831 5823 5804 5802 5818 5822 5819 5816 5813 5806 5797 5789 5782 5779 5776 5775 5773 5771 5769 5767 5766 5765 5763 5762 5761 5760 5758 5757 5756 5755 5754 5753 5752 5751 5750 5749 5749 5748
5859 5849 5821 5819 5832 5845 5852 5855 5847 5837 5833 5830 5820 5804 5800 5817 5817 5816 5816 5812 5808 5799 5789 5781 5778 5775 5773 5771 5769 5768 5766 5765 5763 5762 5761 5759 5758 5757 5756 5755 5753 5752 5751 5750 5749 5749 5748 5747 5747
5852 5838 5826 5836 5835 5839 5849 5858 5847 5838 5832 5832 5829 5806 5803 5813 5818 5819 5815 5812 5808 5800 5790 5783 5778 5775 5772 5770 5768 5766 5765 5763 5762 5761 5759 5758 5757 5756 5755 5753 5752 5751 5750 5749 5749 5748 5747 5747 5747
5874 5848 5835 5842 5837 5839 5856 5858 5855 5843 5835 5846 5840 5811 5801 5812 5821 5819 5814 5810 5805 5801 5795 5788 5783 5778 5774 5770 5767 5766 5764 5763 5761 5760 5759 5758 5756 5755 5754 5753 5751 5750 5749 5749 5748 5747 5747 5746 5747
5881 5842 5831 5845 5846 5848 5860 5852 5852 5854 5844 5843 5843 5830 5822 5823 5821 5813 5807 5803 5800 5799 5797 5793 5787 5781 5778 5774 5769 5766 5764 5762 5761 5759 5758 5757 5757 5756 5754 5753 5751 5750 5749 5748 5748 5747 5747 5746 5747
5870 5841 5847 5864 5867 5861 5861 5855 5851 5840 5829 5826 5827 5827 5826 5822 5815 5807 5801 5797 5795 5794 5795 5794 5790 5785 5782 5778 5770 5768 5766 5763 5762 5761 5759 5758 5758 5757 5756 5753 5751 5750 5749 5748 5748 5748 5747 5747 5748
5869 5854 5865 5871 5875 5870 5863 5860 5859 5841 5823 5824 5820 5819 5820 5817 5812 5807 5803 5800 5797 5796 5795 5794 5789 5785 5783 5779 5774 5771 5769 5765 5764 5762 5761 5760 5759 5757 5756 5753 5751 5751 5750 5750 5750 5749 5749 5750 5751
5869 5870 5872 5873 5877 5872 5865 5861 5854 5847 5840 5843 5836 5829 5822 5815 5812 5809 5805 5801 5798 5797 5795 5793 5790 5786 5782 5779 5777 5774 5771 5767 5765 5763 5763 5761 5760 5759 5757 5756 5755 5754 5754 5753 5753 5753 5752 5752 5752
5866 5870 5877 5879 5878 5873 5866 5858 5850 5849 5853 5849 5840 5830 5823 5818 5816 5814 5810 5805 5800 5795 5794 5792 5789 5784 5781 5778 5775 5774 5772 5769 5767 5765 5763 5762 5761 5760 5758 5757 5757 5757 5756 5755 5755 5755 5753 5753 5752
5871 5872 5874 5878 5875 5870 5857 5849 5847 5845 5854 5845 5835 5828 5826 5822 5818 5814 5809 5804 5799 5796 5793 5791 5788 5783 5779 5776 5774 5773 5772 5770 5768 5766 5764 5762 5762 5760 5758 5757 5757 5758 5758 5757 5756 5755 5754 5753 5753
5873 5862 5864 5873 5872 5866 5852 5829 5835 5849 5851 5840 5834 5830 5827 5825 5821 5815 5811 5806 5802 5797 5795 5791 5787 5783 5779 5776 5774 5774 5773 5771 5769 5767 5764 5762 5761 5760 5759 5758 5758 5759 5759 5758 5757 5756 5755 5755 5754
5863 5850 5838 5859 5868 5866 5841 5807 5832 5850 5846 5838 5835 5830 5826 5824 5823 5820 5816 5810 5806 5800 5795 5791 5789 5784 5779 5777 5774 5774 5774 5772 5769 5767 5765 5763 5762 5761 5760 5760 5759 5759 5758 5758 5757 5756 5755 5755 5754
5846 5836 5834 5846 5867 5865 5847 5820 5837 5853 5845 5838 5836 5832 5827 5823 5823 5822 5819 5813 5808 5802 5796 5791 5789 5784 5780 5777 5775 5773 5773 5772 5770 5768 5766 5764 5762 5762 5761 5761 5760 5759 5758 5758 5758 5757 5755 5753 5753
5838 5844 5842 5841 5861 5862 5848 5838 5842 5851 5848 5841 5837 5834 5829 5823 5822 5823 5820 5816 5810 5803 5798 5792 5789 5785 5781 5778 5775 5773 5772 5771 5770 5769 5767 5765 5763 5763 5762 5762 5761 5760 5759 5758 5757 5756 5755 5754 5753
5851 5847 5842 5848 5864 5856 5848 5844 5847 5853 5848 5843 5839 5835 5831 5827 5828 5827 5822 5817 5810 5803 5797 5793 5788 5785 5781 5777 5774 5770 5769 5770 5770 5769 5768 5766 5765 5764 5763 5762 5761 5760 5758 5757 5756 5755 5753 5752 5754
5846 5842 5843 5850 5864 5855 5847 5845 5853 5852 5849 5848 5842 5837 5835 5830 5827 5824 5821 5817 5810 5803 5798 5794 5789 5785 5782 5779 5776 5774 5772 5771 5771 5770 5769 5767 5766 5765 5764 5761 5760 5760 5757 5756 5755 5754 5751 5751 5753
5838 5840 5844 5844 5856 5858 5847 5834 5838 5848 5851 5851 5850 5846 5842 5835 5827 5823 5820 5816 5811 5804 5799 5796 5791 5787 5784 5781 5778 5775 5771 5769 5768 5768 5767 5768 5766 5765 5764 5763 5761 5759 5758 5755 5755 5754 5750 5747 5751
5829 5853 5852 5847 5838 5834 5842 5809 5821 5835 5834 5842 5847 5846 5843 5839 5833 5827 5821 5816 5811 5807 5803 5798 5793 5788 5785 5782 5778 5773 5768 5764 5766 5766 5767 5767 5766 5765 5765 5763 5761 5759 5758 5756 5755 5755 5753 5750 5747
5841 5857 5850 5845 5837 5830 5838 5818 5812 5826 5820 5833 5847 5849 5847 5842 5837 5830 5824 5818 5814 5810 5805 5799 5793 5788 5785 5781 5777 5773 5770 5768 5768 5768 5767 5766 5766 5765 5765 5764 5763 5760 5759 5758 5756 5756 5753 5751 5748
5851 5846 5841 5839 5832 5808 5826 5821 5805 5821 5827 5835 5846 5849 5848 5844 5839 5832 5828 5821 5815 5811 5806 5799 5792 5787 5784 5780 5777 5773 5770 5768 5767 5766 5765 5764 5765 5765 5765 5764 5763 5761 5759 5758 5757 5756 5754 5752 5750
5839 5820 5801 5797 5797 5801 5830 5825 5821 5842 5851 5848 5846 5848 5848 5844 5837 5830 5824 5818 5813 5808 5803 5798 5791 5786 5783 5779 5776 5773 5771 5769 5766 5765 5764 5763 5763 5764 5765 5765 5763 5761 5760 5758 5757 5755 5753 5751 5749
5829 5823 5798 5787 5791 5798 5815 5813 5832 5857 5861 5860 5856 5853 5847 5840 5834 5828 5824 5818 5812 5808 5802 5797 5791 5785 5783 5780 5776 5774 5771 5769 5767 5766 5765 5763 5763 5764 5765 5764 5762 5761 5760 5758 5757 5754 5752 5750 5748
5825 5823 5836 5821 5815 5804 5806 5818 5830 5853 5854 5854 5852 5848 5842 5838 5833 5828 5824 5818 5812 5807 5802 5797 5790 5785 5782 5779 5775 5772 5769 5767 5766 5765 5764 5762 5761 5763 5763 5762 5761 5759 5757 5756 5754 5752 5750 5748 5746
5841 5836 5827 5812 5793 5787 5798 5807 5811 5826 5838 5845 5844 5842 5839 5836 5833 5828 5822 5816 5811 5805 5801 5796 5790 5784 5781 5777 5774 5770 5768 5766 5764 5763 5760 5760 5759 5758 5758 5757 5756 5755 5754 5752 5750 5748 5747 5745 5743
5824 5824 5822 5819 5815 5796 5786 5792 5830 5834 5843 5844 5843 5843 5839 5835 5829 5826 5821 5816 5811 5805 5799 5793 5787 5782 5778 5774 5771 5769 5766 5764 5762 5759 5758 5756 5755 5754 5753 5752 5751 5750 5749 5748 5746 5744 5743 5741 5739
5832 5825 5821 5800 5799 5810 5801 5798 5841 5844 5851 5849 5844 5841 5836 5833 5828 5824 5819 5812 5807 5802 5796 5790 5786 5781 5776 5773 5769 5766 5763 5761 5758 5755 5754 5752 5751 5750 5749 5747 5746 5745 5744 5743 5741 5739 5738 5736 5733